Regional Weather Roundup
Issued by NWS

Home | Current Version | Previous Version | Text Only | Print | Product List | Glossary Off
Versions: 1 2 3 4 5 6 7 8 9 10 11 12 13 14 15 16 17 18 19 20 21 22 23 24 25 26 27 28 29 30 31 32 33 34 35 36 37 38 39 40 41 42 43 44 45 46 47 48 49 50

000
ASUS43 KLOT 201206
RWRIL

ILLINOIS REGIONAL WEATHER ROUNDUP
NATIONAL WEATHER SERVICE CHICAGO/ROMEOVILLE IL
700 AM CDT SAT SEP 20 2014

NOTE: "FAIR" INDICATES FEW OR NO CLOUDS BELOW 12,000 FEET WITH NO
SIGNIFICANT WEATHER AND/OR OBSTRUCTIONS TO VISIBILITY.

* THESE STATIONS ARE NOT UNDER NWS QUALITY CONTROL. THEY ALSO MAY NOT
  REPORT WEATHER SUCH AS PRECIPITATION OR FOG.

ILZ001-002-007-009-015-016-024-201300-
NORTHWEST ILLINOIS

CITY           SKY/WX    TMP DP  RH WIND       PRES   REMARKS
MOLINE         LGT RAIN  63  60  90 SW6       29.90F FOG
6HR MIN TEMP:  63; 6HR MAX TEMP:  66; 6HR PCP:  0.05;

STERLING*      CLOUDY    63  57  82 SW3       29.91F
SAVANNA*       LGT RAIN  64  61  87 S7        29.87F
$$

ILZ003-004-008-010-011-017-018-201300-
NORTH CENTRAL ILLINOIS

CITY           SKY/WX    TMP DP  RH WIND       PRES   REMARKS
ROCKFORD       CLOUDY    63  57  81 S10       29.91F
6HR MIN TEMP:  60; 6HR MAX TEMP:  64;

FREEPORT*      CLOUDY    60  58  94 S12       29.89F
ROCHELLE*      CLOUDY    58  56  91 SE6       29.92F
DE KALB*       CLOUDY    55  53  92 S10       29.93F FOG
PERU*          CLOUDY    60  57  89 S9        29.95S
$$

ILZ005-006-012>014-019>023-201300-
NORTHEAST ILLINOIS

CITY           SKY/WX    TMP DP  RH WIND       PRES   REMARKS
CHICAGO-OHARE  MOCLDY    63  54  72 SW14      29.93S
6HR MIN TEMP:  63; 6HR MAX TEMP:  65;

CHICAGO-MIDWAY CLOUDY    63  55  75 SW12      29.93S
6HR MIN TEMP:  63; 6HR MAX TEMP:  66;

AURORA         MOCLDY    56  52  86 CALM      29.95S FOG
6HR MIN TEMP:  54; 6HR MAX TEMP:  59;

LANSING*       MOCLDY    59  54  82 SW10G16   29.96R
JOLIET*        MOCLDY    60  53  78 S7        29.97S
WAUKEGAN       CLOUDY    63  55  75 SW15      29.87F
6HR MIN TEMP:  63; 6HR MAX TEMP:  65;

DUPAGE AIRPORT MOCLDY    59  54  83 S8        29.93F
6HR MIN TEMP:  58; 6HR MAX TEMP:  61;

KANKAKEE*      MOCLDY    58  54  88 SW6       30.00R
WHEELING       MOCLDY    64  54  69 SW9       29.93F
6HR MIN TEMP:  64; 6HR MAX TEMP:  67;

MORRIS*        MOCLDY    58  57  97 S5        29.96R
ROMEOVILLE*    MOCLDY    60  54  81 SW8       29.96R
NORTHERLY ISL    N/A     64  53  67 S8          N/A
$$

LMZ740>746-201300-
SOUTHERN LAKE MICHIGAN

STATION/POSITION SKY/WX   TEMP    WIND        PRES    VSBY  WAVE
                          AIR SEA DIR/SP/G                  HT/PER
                          (F)     (DEG/KT/KT) (MB)    (MI)  (FT/S)
SOUTHERN BUOY              65 64  210/ 21/ 25 1011.1F
WAUKEGAN HARBOR            65     240/ 15/ 22   N/A
HARRISON CRIB              64     200/ 25/ 31   N/A
BURNHAM HARBOR             64     200/  5/ 13   N/A
CALUMET HARBOR             64     200/  9/ 12 1012.8F
MICHIGAN CITY              63     180/ 17/ 20   N/A
MICHIGAN CITY 6N           65 65  210/ 17/ 23   N/A           3/ 4
ST. JOSEPH                 65 65  190/ 19/ 25   N/A           4/ 4
$$

ILZ025>027-034>036-040-047-049-050-058-095>099-201300-
WEST-CENTRAL ILLINOIS

CITY           SKY/WX    TMP DP  RH WIND       PRES   REMARKS
QUINCY         CLEAR     61  59  93 S7        29.98R FOG
GALESBURG*     CLOUDY    61  59  94 S7        29.96S
MACOMB*        MOCLDY    62  60  94 SW3       30.00R
JACKSONVILLE*  PTCLDY    64  61  92 S5        30.01R
PITTSFIELD*    CLEAR     64  61  91 SW5       30.00R FOG
$$

ILZ028>032-037-038-041>044-048-051>054-059>061-201300-
CENTRAL ILLINOIS

CITY           SKY/WX    TMP DP  RH WIND       PRES   REMARKS
PONTIAC        MOCLDY    63  57  82 S5        29.98R
DECATUR        PTCLDY    59  55  87 S7        30.02R
PEORIA         MOCLDY    61  57  87 S6        29.98R
6HR MIN TEMP:  60; 6HR MAX TEMP:  64;

LACON*         MOCLDY    63  58  83 SW6       29.96R
LINCOLN*       PTCLDY    59  57  91 S3        29.98R FOG
SPRINGFIELD    PTCLDY    64  59  83 S8        30.00R
6HR MIN TEMP:  62; 6HR MAX TEMP:  65;

TAYLORVILLE    PTCLDY    55  54  94 S6        30.02R
$$

ILZ033-039-045-046-055>057-062-063-201300-
EAST-CENTRAL ILLINOIS

CITY           SKY/WX    TMP DP  RH WIND       PRES   REMARKS
CHAMPAIGN      PTCLDY    58  54  86 S8        30.03R
DANVILLE*      PTCLDY    56  54  93 SW6       30.00S
RANTOUL*       PTCLDY    57  53  87 S6        30.02S
MATTOON        PTCLDY    58  54  86 S5        30.03R
PARIS*         PTCLDY    53  53  99 S3        30.05R FOG
$$

ILZ079-100>102-201300-
SOUTHWEST ILLINOIS

CITY           SKY/WX    TMP DP  RH WIND       PRES   REMARKS
ALTON          CLEAR     57  55  94 CALM      30.01S
BELLEVILLE     PTCLDY    57  57  99 E2        30.03R
CAHOKIA*       CLEAR     57  56  96 CALM      30.02R
SPARTA*        MOCLDY    62  59  89 S5        30.05R
$$

ILZ064>066-069>071-074>076-080>082-084>086-088>090-092>094-201300-
SOUTH-CENTRAL ILLINOIS

CITY           SKY/WX    TMP DP  RH WIND       PRES   REMARKS
CARBONDALE     CLOUDY    59  57  93 CALM      30.05R
6HR MIN TEMP:  54; 6HR MAX TEMP:  59;

CAIRO*         FOG       59  57  94 CALM      30.07R VSB 3/4
EFFINGHAM*     PTCLDY    54  52  91 CALM      30.05R FOG
MARION         MOCLDY    63  61  94 SE5       30.06R
MT. VERNON     MOCLDY    54  48  82 CALM      30.06R
CENTRALIA*     MOCLDY    60  56  87 CALM      30.04R
SALEM*         PTCLDY    58  56  93 CALM      30.05R
METROPOLIS*    PTCLDY    58  58 100 CALM      30.06S FOG
$$

ILZ067-068-072-073-078-083-087-091-201300-
SOUTHEAST ILLINOIS

CITY           SKY/WX    TMP DP  RH WIND       PRES   REMARKS
LAWRENCEVILLE  PTCLDY    54  53  97 CALM      30.06R FOG
FLORA*         CLEAR     53  52  98 CALM      30.06R FOG
FAIRFIELD*     CLEAR    N/A N/A N/A CALM      30.06R FOG
HARRISBURG*    PTCLDY    57  57 100 CALM      30.07R FOG
ROBINSON*      CLEAR     52  51  99 CALM      30.06R FOG
CARMI*         PTCLDY    59  59 100 CALM      30.05R FOG
$$

ABBREVIATIONS USED IN REMARKS
   TC - TEMPERATURE IN CELSIUS
  WCI - WIND CHILL INDEX
   HX - HEAT INDEX
  VSB - VISIBILITY
$$



USA.gov is the U.S. government's official web portal to all federal, state and local government web resources and services.